Location: Bathurst
(33.4193°S, 149.5775°E)
Time: 22:19:41
(UTC+10:00)

Altair - Visible Passes

Search period start: 13 June 2021 00:00
Search period end: 23 June 2021 00:00
Orbit: 1501 x 1683 km, 47.2° (Epoch: 12 June)

Date Brightness Start Highest point End Pass type
(mag) Time Alt. Az. Time Alt. Az. Time Alt. Az.
13 Jun 8.0 03:47:04 46° SSE 03:47:04 46° SSE 03:53:48 10° SE visible
13 Jun 8.2 05:45:06 19° WSW 05:51:00 35° S 05:59:20 10° ESE visible
14 Jun 8.4 03:23:24 36° SE 03:23:24 36° SE 03:28:38 10° SE visible
14 Jun 8.2 05:21:26 25° SW 05:25:39 35° S 05:34:02 10° ESE visible
15 Jun 8.9 02:59:42 27° SE 02:59:42 27° SE 03:03:29 10° SE visible
15 Jun 8.2 04:57:44 31° SW 05:00:19 36° S 05:08:45 10° ESE visible
16 Jun 9.2 02:35:58 20° SE 02:35:58 20° SE 02:38:19 10° SE visible
16 Jun 8.1 04:34:00 36° SSW 04:34:58 37° S 04:43:29 10° SE visible
16 Jun 8.2 06:33:03 10° SW 06:41:53 41° SSE 06:50:29 10° E visible
17 Jun 9.6 02:12:13 14° SE 02:12:13 14° SE 02:13:09 10° SE visible
17 Jun 8.2 04:10:14 37° S 04:10:14 37° S 04:18:14 10° SE visible
17 Jun 8.2 06:08:15 12° SW 06:16:35 40° SSE 06:25:07 10° E visible
18 Jun 8.4 03:46:27 35° SSE 03:46:27 35° SSE 03:52:59 10° SE visible
18 Jun 8.2 05:44:28 17° SW 05:51:15 39° SSE 05:59:46 10° E visible
19 Jun 8.7 03:22:40 30° SSE 03:22:40 30° SSE 03:27:44 10° SE visible
19 Jun 8.3 05:20:42 23° SW 05:25:56 38° S 05:34:24 10° ESE visible
20 Jun 9.0 02:58:53 24° SE 02:58:53 24° SE 03:02:32 10° SE visible
20 Jun 8.3 04:56:54 28° SSW 05:00:36 37° S 05:09:03 10° ESE visible
21 Jun 9.3 02:35:06 18° SE 02:35:06 18° SE 02:37:19 10° SE visible
21 Jun 8.2 04:33:07 33° SSW 04:35:15 36° S 04:43:42 10° ESE visible
21 Jun 7.8 06:32:04 10° SW 06:41:31 65° SSE 06:50:40 10° ENE visible
22 Jun 9.6 02:11:18 13° SE 02:11:18 13° SE 02:12:06 10° SE visible
22 Jun 8.3 04:09:19 35° S 04:09:54 36° S 04:18:21 10° ESE visible
22 Jun 7.8 06:07:20 12° SW 06:16:18 61° SSE 06:25:24 10° ENE visible
